Lafayette, IN

3:43 AM EDT on April 22, 2018 (GMT -0400)
Purdue Univ

Weather History for KLAF - March, 2012

Change the Weather History Date:

Sunday, March 4, 2012

  Actual Average Record
Temperature  
Mean Temperature 35 °F 36 °F  
Max Temperature 40 °F 45 °F 77 °F (1983)
Min Temperature 29 °F 27 °F 3 °F (2002)
Degree Days  
Heating Degree Days 30 29  
Month to date heating degree days 101 118  
Since 1 July heating degree days 3765 4452  
Cooling Degree Days 0 0  
Month to date cooling degree days 0 0  
Year to date cooling degree days 0 0  
Moisture  
Dew Point 21 °F    
Average Humidity 59    
Maximum Humidity 78    
Minimum Humidity 40    
Precipitation  
Precipitation T in 0.09 in 1.05 in (1974)
Month to date precipitation 0.75 0.33  
Year to date precipitation 4.30 3.95  
Sea Level Pressure  
Sea Level Pressure 29.88 in    
Wind  
Wind Speed 10 mph (WNW)    
Max Wind Speed 20 mph    
Max Gust Speed 24 mph    
Visibility 10 miles    
Events Snow    
T = Trace of Precipitation, MM = Missing Value Source: NWS Daily Summary

Daily Weather History Graph

Daily Weather History Graph

Search for Another Location

Airport or City:

Astronomy

Mar. 04, 2012 Rise Set
Actual Time 7:16 AM EST 6:43 PM EST
Civil Twilight 6:48 AM EST 7:10 PM EST
Nautical Twilight 6:17 AM EST 7:42 PM EST
Astronomical Twilight 5:45 AM EST 8:13 PM EST
Moon 2:54 PM EST (3/4) 4:36 AM EST (3/4)
Length of Visible Light 12h 21m
Length of Day
11h 27m
Waxing Gibbous, 83% of the Moon is Illuminated
Mar 4
Waxing Gibbous
Mar 8
Full
Mar 14
Last Quarter
Mar 22
New
Mar 30
First Quarter

Hourly Weather History & Observations

Time (EST) Temp. Windchill Dew Point Humidity Pressure Visibility Wind Dir Wind Speed Gust Speed Precip Events Conditions
12:54 AM 32.0 °F 24.2 °F 21.9 °F 66% 29.86 in 9.0 mi WNW 9.2 mph - 0.00 in   Overcast
1:54 AM 30.9 °F 22.8 °F 23.0 °F 72% 29.86 in 10.0 mi WNW 9.2 mph - N/A   Overcast
2:54 AM 30.9 °F 25.2 °F 23.0 °F 72% 29.85 in 10.0 mi West 5.8 mph - N/A   Overcast
3:54 AM 30.9 °F 24.3 °F 23.0 °F 72% 29.84 in 10.0 mi WNW 6.9 mph - N/A   Overcast
4:54 AM 30.0 °F 24.1 °F 24.1 °F 79% 29.84 in 10.0 mi WSW 5.8 mph - N/A   Overcast
5:09 AM 30.2 °F 24.3 °F 24.8 °F 80% 29.83 in 10.0 mi West 5.8 mph - N/A   Overcast
5:16 AM 30.2 °F 24.3 °F 24.8 °F 80% 29.83 in 10.0 mi WSW 5.8 mph - N/A   Overcast
5:54 AM 30.9 °F 23.5 °F 23.0 °F 72% 29.86 in 10.0 mi West 8.1 mph - N/A   Overcast
6:54 AM 30.0 °F 20.5 °F 23.0 °F 75% 29.87 in 10.0 mi West 11.5 mph - N/A   Overcast
8:54 AM 30.0 °F 21.1 °F 19.9 °F 66% 29.90 in 10.0 mi West 10.4 mph - N/A   Overcast
9:54 AM 32.0 °F 22.1 °F 19.0 °F 59% 29.90 in 10.0 mi West 13.8 mph 20.7 mph N/A   Overcast
10:54 AM 34.0 °F 25.0 °F 19.0 °F 54% 29.90 in 10.0 mi West 12.7 mph 19.6 mph N/A   Overcast
11:54 AM 35.1 °F 25.9 °F 19.0 °F 52% 29.90 in 10.0 mi West 13.8 mph - N/A   Overcast
12:54 PM 35.1 °F 26.9 °F 19.9 °F 54% 29.90 in 10.0 mi West 11.5 mph - N/A   Overcast
1:54 PM 35.1 °F 25.5 °F 18.0 °F 50% 29.88 in 10.0 mi West 15.0 mph - N/A   Mostly Cloudy
2:54 PM 37.0 °F 28.5 °F 19.0 °F 48% 29.86 in 10.0 mi WNW 13.8 mph 19.6 mph N/A   Overcast
3:54 PM 37.9 °F 30.0 °F 18.0 °F 45% 29.86 in 10.0 mi WNW 12.7 mph - N/A   Mostly Cloudy
4:54 PM 39.0 °F 30.6 °F 18.0 °F 43% 29.86 in 10.0 mi West 15.0 mph 20.7 mph N/A   Overcast
5:54 PM 37.0 °F 29.8 °F 19.9 °F 50% 29.87 in 10.0 mi WSW 10.4 mph 18.4 mph N/A   Overcast
6:54 PM 36.0 °F 28.5 °F 19.0 °F 50% 29.89 in 10.0 mi NW 10.4 mph - N/A   Overcast
7:54 PM 35.1 °F 30.1 °F 19.0 °F 52% 29.91 in 10.0 mi NW 5.8 mph - N/A   Overcast
8:54 PM 34.0 °F 28.8 °F 21.0 °F 59% 29.91 in 10.0 mi North 5.8 mph - N/A   Overcast
9:54 PM 32.0 °F 24.2 °F 21.9 °F 66% 29.93 in 10.0 mi NNW 9.2 mph - N/A   Overcast
10:54 PM 30.9 °F 22.8 °F 21.0 °F 67% 29.95 in 10.0 mi NNW 9.2 mph - 0.00 in Snow Light Snow
11:54 PM 30.0 °F 22.4 °F 21.0 °F 69% 29.95 in 10.0 mi NW 8.1 mph - 0.00 in   Overcast